Change the Weather History Date:

Tuesday, January 1, 2013

  Actual Average Record
Temperature  
Mean Temperature 25 °F 26 °F  
Max Temperature 31 °F 33 °F 65 °F (1985)
Min Temperature 18 °F 20 °F -1 °F (1968)
Degree Days  
Heating Degree Days 40 39  
Month to date heating degree days 40 39  
Since 1 July heating degree days 2303 2445  
Cooling Degree Days 0 0  
Month to date cooling degree days 0 0  
Year to date cooling degree days 0 0  
Moisture  
Dew Point 19 °F    
Average Humidity 77    
Maximum Humidity 92    
Minimum Humidity 62    
Precipitation  
Precipitation 0.03 in 0.09 in 0.71 in (1964)
Month to date precipitation 0.03 0.09  
Year to date precipitation 0.03 0.09  
Snow  
Snow 0.40 in 0.50 in - ()
Month to date snowfall 0.4 0.5  
Since 1 July snowfall 27.6 19.9  
Snow Depth 9.00 in    
Sea Level Pressure  
Sea Level Pressure 30.04 in    
Wind  
Wind Speed 7 mph (WNW)    
Max Wind Speed 14 mph    
Max Gust Speed 17 mph    
Visibility 7 miles    
Events Snow    
T = Trace of Precipitation, MM = Missing Value Source: NWS Daily Summary

Daily Weather History Graph

Daily Weather History Graph

Search for Another Location

Airport or City:

Trip Planner

Search our weather history database for the weather conditions in past years. The results will help you decide how hot, cold, wet, or windy it might be!

Date:

Astronomy

Jan. 01, 2013 Rise Set
Actual Time 7:48 AM EST 5:04 PM EST
Civil Twilight 7:17 AM EST 5:35 PM EST
Nautical Twilight 6:42 AM EST 6:10 PM EST
Astronomical Twilight 6:09 AM EST 6:43 PM EST
Moon 9:37 PM EST (1/1) 9:57 AM EST (1/1)
Length of Visible Light 10h 18m
Length of Day
9h 16m
Waning Gibbous, 83% of the Moon is Illuminated
Jan 1
Waning Gibbous
Jan 4
Last Quarter
Jan 11
New
Jan 18
First Quarter
Jan 26
Full

Hourly Weather History & Observations

Time (EST) Temp. Windchill Dew Point Humidity Pressure Visibility Wind Dir Wind Speed Gust Speed Precip Events Conditions
12:51 AM 30.9 °F 22.8 °F 27.0 °F 85% 30.01 in 6.0 mi WSW 9.2 mph - N/A Snow Light Snow
1:51 AM 30.9 °F 21.2 °F 27.0 °F 85% 30.00 in 6.0 mi WSW 12.7 mph - 0.00 in Snow Light Snow
2:51 AM 30.9 °F 23.5 °F 27.0 °F 85% 30.00 in 7.0 mi West 8.1 mph - 0.00 in Snow Light Snow
3:51 AM 30.9 °F 23.5 °F 27.0 °F 85% 30.00 in 6.0 mi WSW 8.1 mph - 0.00 in Snow Light Snow
4:51 AM 30.0 °F 23.2 °F 27.0 °F 88% 30.00 in 4.0 mi WSW 6.9 mph - 0.00 in Snow Light Snow
5:34 AM 30.2 °F 25.4 °F 26.6 °F 86% 29.96 in 4.0 mi West 4.6 mph - 0.01 in Snow Light Snow
5:51 AM 30.0 °F 25.2 °F 27.0 °F 88% 30.01 in 5.0 mi West 4.6 mph - 0.01 in Snow Light Snow
6:51 AM 28.9 °F 21.9 °F 26.1 °F 89% 30.02 in 4.0 mi NW 6.9 mph - N/A Snow Light Snow
7:51 AM 28.9 °F 22.8 °F 25.0 °F 85% 30.03 in 5.0 mi WNW 5.8 mph - 0.00 in Snow Light Snow
8:29 AM 28.4 °F 22.2 °F 23.0 °F 80% 29.98 in 5.0 mi WNW 5.8 mph - 0.00 in Snow Light Snow
8:51 AM 28.9 °F 23.9 °F 23.0 °F 78% 30.03 in 5.0 mi WNW 4.6 mph - 0.00 in Snow Light Snow
9:51 AM 27.0 °F 16.1 °F 23.0 °F 85% 30.06 in 3.0 mi NNW 12.7 mph - 0.00 in Snow Light Snow
10:51 AM 27.0 °F 17.3 °F 21.9 °F 81% 30.08 in 9.0 mi NNW 10.4 mph - 0.00 in Snow Light Snow
11:51 AM 26.1 °F 16.2 °F 19.9 °F 78% 30.04 in 9.0 mi NNW 10.4 mph - 0.00 in Snow Light Snow
12:15 PM 26.6 °F 15.7 °F 19.4 °F 74% 30.00 in 9.0 mi NNW 12.7 mph - 0.00 in Snow Light Snow
12:51 PM 25.0 °F 14.2 °F 19.0 °F 78% 30.03 in 9.0 mi NNW 11.5 mph - 0.00 in Snow Light Snow
1:51 PM 25.0 °F 14.8 °F 18.0 °F 75% 30.04 in 8.0 mi NNW 10.4 mph - 0.00 in Snow Light Snow
2:51 PM 24.1 °F 14.4 °F 18.0 °F 77% 30.02 in 7.0 mi NNW 9.2 mph - 0.00 in Snow Light Snow
3:51 PM 23.0 °F 11.7 °F 15.8 °F 74% 30.07 in 9.0 mi NW 11.5 mph - N/A Snow Light Snow
4:51 PM 21.9 °F 12.5 °F 15.1 °F 75% 30.08 in 9.0 mi NW 8.1 mph - 0.00 in Snow Light Snow
5:51 PM 21.0 °F 13.4 °F 14.0 °F 74% 30.09 in 10.0 mi West 5.8 mph - 0.00 in Snow Light Snow
6:11 PM 21.2 °F 14.9 °F 14.0 °F 74% 30.04 in 9.0 mi WNW 4.6 mph - 0.00 in Snow Light Snow
6:51 PM 21.0 °F 14.6 °F 14.0 °F 74% 30.09 in 9.0 mi NW 4.6 mph - 0.00 in Snow Light Snow
7:51 PM 21.0 °F 13.4 °F 10.9 °F 65% 30.08 in 9.0 mi WNW 5.8 mph - 0.00 in Snow Light Snow
8:35 PM 19.4 °F 11.5 °F 10.4 °F 68% 30.04 in 10.0 mi West 5.8 mph - 0.00 in   Scattered Clouds
8:51 PM 19.0 °F 12.3 °F 10.0 °F 68% 30.10 in 10.0 mi WNW 4.6 mph - 0.00 in   Mostly Cloudy
9:42 PM 19.4 °F - 10.4 °F 68% 30.04 in 10.0 mi Calm Calm - N/A   Mostly Cloudy
9:51 PM 19.0 °F - 10.0 °F 68% 30.09 in 10.0 mi Calm Calm - 0.00 in Snow Light Snow
10:51 PM 19.9 °F - 10.9 °F 68% 30.10 in 9.0 mi Calm Calm - 0.00 in Snow Light Snow
11:51 PM 19.9 °F 12.1 °F 12.9 °F 74% 30.10 in 10.0 mi WSW 5.8 mph - 0.00 in   Overcast